DW3588 Weather Reports


Display with metric or nautical units.
time (UTC)temp
F
wind
direction
speed
MPH
gust
MPH
rain 1hr
in
rain 24hr
in
rain mn
in
humidity
%
barometer
mb
20260904024121 71 205 5.0 11.0 0.00 0.00 0.00 67 1010.4
20260904023618 72 291 5.0 13.0 0.00 0.00 0.00 67 1010.3
20260904023117 72 251 4.0 15.0 0.00 0.00 0.00 66 1010.4
20260904022614 72 259 3.0 15.0 0.00 0.00 0.00 65 1010.5
20260904022114 72 236 3.0 9.0 0.00 0.00 0.00 65 1010.5
20260904021838 72 213 3.0 9.0 0.00 0.00 0.00 64 1010.5
20260904021112 73 239 3.0 7.0 0.00 0.00 0.00 64 1010.4
20260904020831 73 263 3.0 7.0 0.00 0.00 0.00 64 1010.4
20260904020311 73 252 1.0 4.0 0.00 0.00 0.00 63 1010.5
20260904020156 73 234 3.0 7.0 0.00 0.00 0.00 64 1010.5
20260904015330 73 251 3.0 12.0 0.00 0.00 0.00 63 1010.5
20260904014606 73 277 4.0 12.0 0.00 0.00 0.00 62 1010.6
20260904014105 74 236 4.0 10.0 0.00 0.00 0.00 62 1010.5
20260904014037 74 230 3.0 11.0 0.00 0.00 0.00 61 1010.5
20260904013054 74 273 2.0 11.0 0.00 0.00 0.00 60 1010.6
20260904012540 75 226 3.0 11.0 0.00 0.00 0.00 59 1010.5
20260904012038 75 228 5.0 11.0 0.00 0.00 0.00 59 1010.6
20260904011537 75 236 6.0 11.0 0.00 0.00 0.00 58 1010.5
20260904011038 75 248 5.0 10.0 0.00 0.00 0.00 57 1010.5
20260904010800 76 278 6.0 12.0 0.00 0.00 0.00 56 1010.4
20260904010036 76 248 7.0 12.0 0.00 0.00 0.00 56 1010.4
20260904005536 76 269 7.0 11.0 0.00 0.00 0.00 55 1010.4
20260904005037 77 277 6.0 11.0 0.00 0.00 0.00 55 1010.4
20260904004536 77 241 5.0 11.0 0.00 0.00 0.00 55 1010.4
20260904004239 78 278 5.0 12.0 0.00 0.00 0.00 54 1010.4
20260904004122 77 243 5.0 12.0 0.00 0.00 0.00 54 1010.4
20260904003037 78 279 5.0 11.0 0.00 0.00 0.00 53 1010.4
20260904002536 78 198 5.0 8.0 0.00 0.00 0.00 53 1010.5
20260904002035 78 274 5.0 11.0 0.00 0.00 0.00 53 1010.5
20260904001533 78 253 6.0 11.0 0.00 0.00 0.00 53 1010.5
20260904001256 79 265 6.0 11.0 0.00 0.00 0.00 52 1010.5
20260904000532 79 240 6.0 11.0 0.00 0.00 0.00 53 1010.5
20260904000032 79 251 5.0 11.0 0.00 0.00 0.00 53 1010.6
20260903235533 79 270 4.0 9.0 0.00 0.00 0.00 53 1010.6
20260903235028 78 269 3.0 9.0 0.00 0.00 0.00 53 1010.6
20260903234527 79 266 4.0 11.0 0.00 0.00 0.00 53 1010.6
20260903234029 79 265 3.0 11.0 0.00 0.00 0.00 53 1010.7
20260903233526 78 283 3.0 9.0 0.00 0.00 0.00 53 1010.7
20260903233026 79 252 4.0 10.0 0.00 0.00 0.00 53 1010.8
20260903232526 79 313 5.0 10.0 0.00 0.00 0.00 52 1010.8
20260903232246 80 259 5.0 11.0 0.00 0.00 0.00 52 1010.8
20260903231525 79 274 6.0 11.0 0.00 0.00 0.00 52 1010.8
20260903231026 80 320 6.0 11.0 0.00 0.00 0.00 52 1010.9
20260903230525 80 246 5.0 11.0 0.00 0.00 0.00 51 1010.9
20260903230027 80 274 4.0 12.0 0.00 0.00 0.00 52 1011.1
20260903225747 80 297 5.0 12.0 0.00 0.00 0.00 52 1011.2
20260903225024 79 265 4.0 9.0 0.00 0.00 0.00 53 1011.2
20260903224522 78 253 4.0 9.0 0.00 0.00 0.00 54 1011.4
20260903224021 78 279 3.0 9.0 0.00 0.00 0.00 54 1011.4
20260903223519 78 335 4.0 9.0 0.00 0.00 0.00 54 1011.3
20260903223020 78 238 5.0 12.0 0.00 0.00 0.00 54 1011.3
20260903222518 78 232 6.0 12.0 0.00 0.00 0.00 53 1011.3
20260903222016 78 239 7.0 13.0 0.00 0.00 0.00 53 1011.4
20260903221516 78 259 7.0 13.0 0.00 0.00 0.00 53 1011.5
20260903221012 78 219 6.0 12.0 0.00 0.00 0.00 53 1011.6
20260903220510 78 263 6.0 12.0 0.00 0.00 0.00 53 1011.7
20260903220008 78 215 6.0 12.0 0.00 0.00 0.00 54 1011.8
20260903215508 78 242 7.0 13.0 0.00 0.00 0.00 53 1011.9
20260903215006 78 246 6.0 13.0 0.00 0.00 0.00 54 1012.0
20260903214505 78 227 5.0 10.0 0.00 0.00 0.00 54 1012.0
20260903214007 78 220 6.0 11.0 0.00 0.00 0.00 54 1012.0
20260903213504 77 231 6.0 11.0 0.00 0.00 0.00 54 1012.1
20260903213004 78 240 6.0 12.0 0.00 0.00 0.00 53 1012.1
20260903212505 78 223 6.0 12.0 0.00 0.00 0.00 53 1012.1
20260903212003 78 188 5.0 10.0 0.00 0.00 0.00 52 1012.1
20260903211502 79 227 6.0 11.0 0.00 0.00 0.00 52 1012.1
20260903211444 79 273 4.0 11.0 0.00 0.00 0.00 51 1012.1
20260903210456 79 240 3.0 6.0 0.00 0.00 0.00 51 1012.1
20260903205954 79 234 4.0 7.0 0.00 0.00 0.00 51 1012.1
20260903205452 79 215 4.0 9.0 0.00 0.00 0.00 50 1012.2
20260903204952 80 223 5.0 11.0 0.00 0.00 0.00 50 1012.2
20260903204450 80 232 5.0 11.0 0.00 0.00 0.00 50 1012.3
20260903203950 80 211 5.0 13.0 0.00 0.00 0.00 49 1012.2
20260903203450 80 244 5.0 13.0 0.00 0.00 0.00 49 1012.3
20260903202949 80 233 5.0 11.0 0.00 0.00 0.00 49 1012.2
20260903202449 81 193 4.0 11.0 0.00 0.00 0.00 48 1012.2
20260903201947 81 262 5.0 14.0 0.00 0.00 0.00 49 1012.3
20260903201441 80 252 5.0 14.0 0.00 0.00 0.00 48 1012.3
20260903200941 81 278 4.0 12.0 0.00 0.00 0.00 47 1012.4
20260903200659 82 291 4.0 12.0 0.00 0.00 0.00 46 1012.4
20260903195941 82 220 4.0 9.0 0.00 0.00 0.00 48 1012.5
20260903195440 81 235 5.0 10.0 0.00 0.00 0.00 48 1012.5
20260903194938 81 210 4.0 10.0 0.00 0.00 0.00 48 1012.6
20260903194433 81 283 4.0 10.0 0.00 0.00 0.00 48 1012.6
20260903193934 81 298 3.0 10.0 0.00 0.00 0.00 48 1012.7
20260903193652 80 263 3.0 10.0 0.00 0.00 0.00 49 1012.7
20260903192931 80 342 4.0 10.0 0.00 0.00 0.00 49 1012.8
20260903192430 80 285 5.0 12.0 0.00 0.00 0.00 49 1012.8
20260903191927 80 298 5.0 12.0 0.00 0.00 0.00 48 1012.9
20260903191425 82 284 3.0 9.0 0.00 0.00 0.00 48 1013.0
20260903190923 82 211 3.0 8.0 0.00 0.00 0.00 46 1013.0
20260903190423 82 225 3.0 7.0 0.00 0.00 0.00 47 1013.0
20260903185922 81 107 3.0 7.0 0.00 0.00 0.00 49 1013.0
20260903185422 82 136 3.0 6.0 0.00 0.00 0.00 47 1013.1
20260903184919 83 210 4.0 8.0 0.00 0.00 0.00 46 1013.2
20260903184418 82 238 4.0 8.0 0.00 0.00 0.00 47 1013.2
20260903183912 81 309 3.0 10.0 0.00 0.00 0.00 48 1013.3
20260903183410 81 312 2.0 10.0 0.00 0.00 0.00 47 1013.3
20260903182908 80 229 2.0 7.0 0.00 0.00 0.00 49 1013.4
20260903182408 80 245 1.0 7.0 0.00 0.00 0.00 49 1013.3
20260903181905 80 186 1.0 4.0 0.00 0.00 0.00 50 1013.3
20260903181403 79 204 1.0 5.0 0.00 0.00 0.00 50 1013.4
20260903180902 79 165 1.0 5.0 0.00 0.00 0.00 50 1013.4
20260903180359 79 204 2.0 5.0 0.00 0.00 0.00 51 1013.5
20260903175859 77 205 2.0 6.0 0.00 0.00 0.00 52 1013.5
20260903175358 78 265 2.0 6.0 0.00 0.00 0.00 52 1013.5
20260903175110 78 275 3.0 6.0 0.00 0.00 0.00 51 1013.6
20260903174352 78 281 4.0 10.0 0.00 0.00 0.00 52 1013.7
20260903173852 78 242 4.0 10.0 0.00 0.00 0.00 51 1013.8
20260903173612 78 257 4.0 10.0 0.00 0.00 0.00 51 1013.8
20260903172851 78 239 3.0 10.0 0.00 0.00 0.00 52 1013.8
20260903172623 77 243 2.0 8.0 0.00 0.00 0.00 52 1013.8
20260903171846 76 317 2.0 4.0 0.00 0.00 0.00 54 1013.8
20260903171345 76 328 3.0 8.0 0.00 0.00 0.00 54 1013.8
20260903170845 75 339 2.0 9.0 0.00 0.00 0.00 56 1013.9
20260903170346 75 306 1.0 9.0 0.00 0.00 0.00 56 1013.9
20260903165845 74 259 1.0 4.0 0.00 0.00 0.00 58 1014.0
20260903165345 74 261 2.0 6.0 0.00 0.00 0.00 58 1013.9
20260903164844 73 265 2.0 6.0 0.00 0.00 0.00 60 1014.0
20260903164342 72 72 2.0 5.0 0.00 0.00 0.00 61 1014.0
20260903163841 72 328 2.0 5.0 0.00 0.00 0.00 61 1014.1
20260903163339 72 305 2.0 5.0 0.00 0.00 0.00 61 1014.1
20260903162840 71 323 1.0 5.0 0.00 0.00 0.00 62 1014.1
20260903162337 71 292 1.0 4.0 0.00 0.00 0.00 62 1014.2
20260903161840 71 292 2.0 4.0 0.00 0.00 0.00 64 1014.1
20260903161329 71 0 2.0 5.0 0.00 0.00 0.00 64 1014.2
20260903160829 70 5 2.0 5.0 0.00 0.00 0.00 65 1014.2
20260903160327 70 324 1.0 4.0 0.00 0.00 0.00 65 1014.2
20260903155826 69 290 1.0 3.0 0.00 0.00 0.00 68 1014.2
20260903155327 67 189 1.0 3.0 0.00 0.00 0.00 71 1014.1
20260903154827 64 188 1.0 3.0 0.00 0.00 0.00 77 1014.2
20260903154326 63 188 0.0 2.0 0.00 0.00 0.00 80 1014.3
20260903153825 62 187 0.0 3.0 0.00 0.00 0.00 81 1014.3
20260903153326 62 187 1.0 3.0 0.00 0.00 0.00 82 1014.4
20260903152827 61 190 0.0 3.0 0.00 0.00 0.00 82 1014.4
20260903152323 61 196 0.0 3.0 0.00 0.00 0.00 82 1014.5
20260903151822 60 196 1.0 2.0 0.00 0.00 0.00 83 1014.5
20260903151321 60 196 0.0 2.0 0.00 0.00 0.00 83 1014.5
20260903151043 60 246 0.0 0.0 0.00 0.00 0.00 83 1014.6
20260903150319 59 246 0.0 0.0 0.00 0.00 0.00 83 1014.5
20260903145820 59 246 0.0 0.0 0.00 0.00 0.00 82 1014.5
20260903145320 59 246 0.0 0.0 0.00 0.00 0.00 82 1014.4
20260903145305 58 246 0.0 0.0 0.00 0.00 0.00 82 1014.4
20260903144313 58 246 0.0 0.0 0.00 0.00 0.00 81 1014.5
20260903143811 58 247 0.0 0.0 0.00 0.00 0.00 81 1014.5
20260903143311 58 247 0.0 3.0 0.00 0.00 0.00 80 1014.5
20260903142809 58 247 0.0 3.0 0.00 0.00 0.00 80 1014.4
20260903142533 58 247 1.0 3.0 0.00 0.00 0.00 80 1014.4
20260903141807 58 248 1.0 3.0 0.00 0.00 0.00 80 1014.4
20260903141307 58 249 1.0 4.0 0.00 0.00 0.00 79 1014.4
20260903140808 58 250 1.0 4.0 0.00 0.00 0.00 79 1014.5
20260903140305 58 263 1.0 3.0 0.00 0.00 0.00 79 1014.5
20260903135757 58 265 1.0 2.0 0.00 0.00 0.00 79 1014.5
20260903135250 59 266 0.0 2.0 0.00 0.00 0.00 79 1014.4
20260903134747 59 267 0.0 2.0 0.00 0.00 0.00 79 1014.4
20260903134243 59 267 1.0 2.0 0.00 0.00 0.00 79 1014.3
20260903133741 59 268 1.0 2.0 0.00 0.00 0.00 79 1014.3
20260903133235 59 268 0.0 2.0 0.00 0.00 0.00 79 1014.3
20260903133214 59 269 0.0 2.0 0.00 0.00 0.00 79 1014.3
20260903132234 59 269 0.0 2.0 0.00 0.00 0.00 79 1014.2
20260903131737 59 269 0.0 2.0 0.00 0.00 0.00 79 1014.2
20260903131231 59 269 1.0 3.0 0.00 0.00 0.00 79 1014.3
20260903130730 59 269 1.0 3.0 0.00 0.00 0.00 79 1014.2
20260903130231 60 279 0.0 2.0 0.00 0.00 0.00 79 1014.2
20260903125729 60 279 0.0 2.0 0.00 0.00 0.00 79 1014.2
20260903125223 60 279 0.0 2.0 0.00 0.00 0.00 79 1014.3
20260903124722 60 279 1.0 2.0 0.00 0.00 0.00 79 1014.3
20260903124443 60 279 1.0 2.0 0.00 0.00 0.00 79 1014.2
20260903123721 60 279 1.0 3.0 0.00 0.00 0.00 79 1014.3
20260903123221 60 279 1.0 3.0 0.00 0.00 0.00 79 1014.3
20260903122719 60 279 1.0 3.0 0.00 0.00 0.00 79 1014.3
20260903122218 60 279 2.0 3.0 0.00 0.00 0.00 79 1014.3
20260903121715 60 279 1.0 3.0 0.00 0.00 0.00 79 1014.3
20260903121440 60 277 2.0 6.0 0.00 0.00 0.00 79 1014.3
20260903120714 60 277 2.0 6.0 0.00 0.00 0.00 79 1014.3
20260903120211 60 295 2.0 5.0 0.00 0.00 0.00 79 1014.3
20260903115711 60 254 2.0 7.0 0.00 0.00 0.00 79 1014.3
20260903115210 60 288 3.0 7.0 0.00 0.00 0.00 79 1014.4
20260903114711 60 319 3.0 8.0 0.00 0.00 0.00 79 1014.4
20260903114211 60 300 3.0 8.0 0.00 0.00 0.00 79 1014.5
20260903113710 60 277 2.0 6.0 0.00 0.00 0.00 79 1014.6
20260903113436 60 267 2.0 6.0 0.00 0.00 0.00 79 1014.6
20260903112711 60 284 2.0 6.0 0.00 0.00 0.00 79 1014.6
20260903112432 60 279 2.0 5.0 0.00 0.00 0.00 79 1014.7
20260903111703 60 300 2.0 5.0 0.00 0.00 0.00 79 1014.7
20260903111203 60 296 1.0 4.0 0.00 0.00 0.00 78 1014.8
20260903110702 60 298 1.0 4.0 0.00 0.00 0.00 78 1014.8
20260903110157 59 298 1.0 5.0 0.00 0.00 0.00 78 1014.8
20260903105655 59 297 2.0 5.0 0.00 0.00 0.00 78 1014.9
20260903105153 59 300 2.0 6.0 0.00 0.00 0.00 78 1014.8
20260903104650 59 312 1.0 6.0 0.00 0.00 0.00 77 1014.8
20260903104148 59 277 1.0 4.0 0.00 0.00 0.00 77 1014.8
20260903103648 59 269 1.0 4.0 0.00 0.00 0.00 76 1014.9
20260903103633 59 279 0.0 2.0 0.00 0.00 0.00 75 1014.8
20260903102646 59 279 0.0 2.0 0.00 0.00 0.00 75 1014.9
20260903102147 59 279 1.0 3.0 0.00 0.00 0.00 75 1014.9
20260903101647 59 279 2.0 4.0 0.00 0.00 0.00 75 1014.9
20260903101141 59 277 1.0 4.0 0.00 0.00 0.00 75 1015.0
20260903100639 59 275 0.0 3.0 0.00 0.00 0.00 74 1014.9
20260903100137 59 275 0.0 2.0 0.00 0.00 0.00 73 1015.0
20260903095640 60 275 0.0 1.0 0.00 0.00 0.00 73 1014.9
20260903095636 60 275 0.0 2.0 0.00 0.00 0.00 73 1015.0
20260903094637 60 275 0.0 6.0 0.00 0.00 0.00 73 1015.0
20260903094137 60 275 1.0 6.0 0.00 0.00 0.00 73 1015.0
20260903093637 60 275 2.0 6.0 0.00 0.00 0.00 73 1015.0
20260903093134 60 275 3.0 6.0 0.00 0.00 0.00 73 1014.9
20260903092632 60 233 1.0 5.0 0.00 0.00 0.00 72 1015.0
20260903092127 60 265 0.0 4.0 0.00 0.00 0.00 72 1015.1
20260903091625 60 265 1.0 4.0 0.00 0.00 0.00 72 1015.2
20260903091123 60 217 0.0 3.0 0.00 0.00 0.00 72 1015.2
20260903090621 60 215 0.0 0.0 0.00 0.00 0.00 72 1015.2
20260903090121 60 215 0.0 0.0 0.00 0.00 0.00 72 1015.3
20260903085621 60 215 0.0 2.0 0.00 0.00 0.00 72 1015.3
20260903085121 60 215 0.0 3.0 0.00 0.00 0.00 72 1015.3
20260903084840 60 215 1.0 3.0 0.00 0.00 0.00 72 1015.3
20260903084117 60 215 1.0 3.0 0.00 0.00 0.00 72 1015.4
20260903083615 60 215 2.0 3.0 0.00 0.00 0.00 71 1015.4
20260903083113 60 215 2.0 4.0 0.00 0.00 0.00 71 1015.4
20260903082833 60 215 2.0 4.0 0.00 0.00 0.00 71 1015.4
20260903082109 60 229 1.0 4.0 0.00 0.00 0.00 70 1015.4
20260903081608 60 234 0.0 2.0 0.00 0.00 0.00 69 1015.4
20260903081111 60 235 0.0 2.0 0.00 0.00 0.00 69 1015.4
20260903080608 61 235 0.0 3.0 0.00 0.00 0.00 69 1015.4
20260903080331 61 235 0.0 3.0 0.00 0.00 0.00 69 1015.4
20260903075825 61 308 0.0 2.0 0.00 0.00 0.00 69 1015.4
20260903075104 62 309 0.0 2.0 0.00 0.00 0.00 69 1015.3
20260903074604 62 309 0.0 3.0 0.00 0.00 0.00 69 1015.3
20260903074319 62 309 1.0 3.0 0.00 0.00 0.00 69 1015.3
20260903073601 62 309 1.0 3.0 0.00 0.00 0.00 69 1015.3
20260903073102 62 311 1.0 2.0 0.00 0.00 0.00 69 1015.3
20260903072559 62 311 0.0 2.0 0.00 0.00 0.00 69 1015.2
20260903072057 62 319 0.0 2.0 0.00 0.00 0.00 69 1015.2
20260903071555 62 319 0.0 2.0 0.00 0.00 0.00 69 1015.3
20260903071053 63 319 0.0 2.0 0.00 0.00 0.00 69 1015.3
20260903070552 63 319 0.0 1.0 0.00 0.00 0.00 69 1015.3
20260903070052 63 319 0.0 1.0 0.00 0.00 0.00 70 1015.3
20260903065812 63 319 0.0 2.0 0.00 0.00 0.00 69 1015.2
20260903065051 63 319 1.0 2.0 0.00 0.00 0.00 69 1015.3
20260903064816 63 320 0.0 2.0 0.00 0.00 0.00 69 1015.3
20260903064309 63 320 0.0 2.0 0.00 0.00 0.00 69 1015.3
20260903063547 63 320 1.0 3.0 0.00 0.00 0.00 69 1015.3
20260903063315 64 320 2.0 3.0 0.00 0.00 0.00 68 1015.3
20260903062543 64 319 2.0 4.0 0.00 0.00 0.00 68 1015.3
20260903062041 64 319 2.0 4.0 0.00 0.00 0.00 67 1015.3
20260903061539 64 343 2.0 4.0 0.00 0.00 0.00 67 1015.3
20260903061038 64 329 2.0 4.0 0.00 0.00 0.00 66 1015.4
20260903060757 64 329 2.0 4.0 0.00 0.00 0.00 66 1015.3
20260903060252 64 329 2.0 4.0 0.00 0.00 0.00 65 1015.3
20260903055800 65 313 2.0 4.0 0.00 0.00 0.00 65 1015.3
20260903055033 65 313 2.0 4.0 0.00 0.00 0.00 65 1015.4
20260903054531 65 312 2.0 4.0 0.00 0.00 0.00 64 1015.5
20260903054028 65 310 2.0 6.0 0.00 0.00 0.00 64 1015.5
20260903053527 65 313 2.0 6.0 0.00 0.00 0.00 63 1015.5
20260903053026 65 323 3.0 6.0 0.00 0.00 0.00 63 1015.5
20260903052517 65 315 4.0 8.0 0.00 0.00 0.00 63 1015.5
20260903052015 65 320 4.0 8.0 0.00 0.00 0.00 62 1015.5
20260903051514 66 315 3.0 7.0 0.00 0.00 0.00 61 1015.4
20260903051014 66 307 3.0 6.0 0.00 0.00 0.00 61 1015.4
20260903050512 66 298 2.0 5.0 0.00 0.00 0.00 61 1015.5
20260903050011 66 298 2.0 7.0 0.00 0.00 0.00 61 1015.5
20260903045510 66 294 2.0 7.0 0.00 0.00 0.00 61 1015.5
20260903045010 67 294 2.0 5.0 0.00 0.00 0.00 60 1015.5
20260903044509 67 300 2.0 4.0 0.00 0.00 0.00 60 1015.5
20260903044007 67 302 2.0 4.0 0.00 0.00 0.00 60 1015.5
20260903043728 67 286 3.0 4.0 0.00 0.00 0.00 60 1015.4
20260903043006 67 273 2.0 4.0 0.00 0.00 0.00 60 1015.4
20260903042506 67 298 2.0 4.0 0.00 0.00 0.00 61 1015.4
20260903042002 68 289 2.0 4.0 0.00 0.00 0.00 60 1015.4
20260903041500 68 288 2.0 4.0 0.00 0.00 0.00 60 1015.3
20260903041219 68 288 2.0 4.0 0.00 0.00 0.00 60 1015.3
20260903040458 68 283 2.0 4.0 0.00 0.00 0.00 60 1015.3
20260903035956 68 276 2.0 6.0 0.00 0.00 0.00 61 1015.2
20260903035454 69 283 3.0 8.0 0.00 0.00 0.00 60 1015.2
20260903034953 69 284 4.0 9.0 0.00 0.00 0.00 60 1015.1
20260903034451 69 326 5.0 9.0 0.00 0.00 0.00 60 1015.0
20260903033950 69 277 5.0 9.0 0.00 0.00 0.00 59 1015.0
20260903033448 69 309 5.0 10.0 0.00 0.00 0.00 59 1014.9
20260903032947 70 319 5.0 10.0 0.00 0.00 0.00 58 1014.8
20260903032441 70 332 4.0 9.0 0.00 0.00 0.00 57 1014.7
20260903032208 71 303 4.0 10.0 0.00 0.00 0.00 56 1014.7
20260903031437 71 311 4.0 10.0 0.00 0.00 0.00 54 1014.6
20260903030939 71 311 4.0 9.0 0.00 0.00 0.00 52 1014.6
20260903030437 72 321 4.0 9.0 0.00 0.00 0.00 51 1014.5
20260903025936 72 324 3.0 8.0 0.00 0.00 0.00 50 1014.5
20260903025434 73 313 3.0 7.0 0.00 0.00 0.00 49 1014.4
20260903024932 73 264 2.0 7.0 0.00 0.00 0.00 48 1014.4
20260903024428 74 235 3.0 8.0 0.00 0.00 0.00 49 1014.4